Regional Weather Roundup
Issued by NWS Jackson, KY

Home | Current Version | Previous Version | Graphics & Text | Print | Product List | Glossary On
Versions: 1 2 3 4 5 6 7 8 9 10 11 12 13 14 15 16 17 18 19 20 21 22 23 24 25 26 27 28
000
ASUS43 KJKL 300510
RWRJKL

EAST KENTUCKY HOURLY WEATHER ROUNDUP
NATIONAL WEATHER SERVICE JACKSON KY
100 AM EDT SAT APR 30 2016

NOTE: "FAIR" INDICATES FEW OR NO CLOUDS BELOW 12,000 FEET WITH
NO SIGNIFICANT WEATHER AND/OR OBSTRUCTIONS TO VISIBILITY.

* THESE REPORTS ARE NOT UNDER NWS QUALITY CONTROL AND MAY NOT
  REPORT WEATHER SUCH AS PRECIPITATION AND FOG.

KYZ079-080-083-085-087-088-110-112-115-119-120-300600
...EASTERN KENTUCKY...

CITY           SKY/WX    TMP DP  RH WIND       PRES   REMARKS
JACKSON        CLOUDY    61  50  67 CALM      30.08R
LONDON         CLOUDY    64  49  57 S3        30.04S
SOMERSET*      CLOUDY    63  52  67 NE6       30.04F
MONTICELLO*    CLOUDY    64  56  75 NW6       30.03F
WILLIAMSBURG*  CLOUDY    57  54  88 CALM      30.03F
MIDDLESBORO*   CLOUDY    62  54  75 CALM      30.03S
HARLAN APT*      N/A     61  54  77 CALM      30.04F
HAZARD APT*    CLEAR     63  52  67 CALM      30.08R
BLACK MTN*       N/A     55  48  76 CALM        N/A
PIKE CO APT*     N/A     60  53  78 N3        30.07S
BIG SANDY APT* CLOUDY    60  53  78 NE13G18   30.04F
MOREHEAD APT*  CLOUDY    59  50  72 E10       30.08S
$$

KYZ035-036-041-042-044-050-067-078-099-300600
...CENTRAL KENTUCKY...

CITY           SKY/WX    TMP DP  RH WIND       PRES   REMARKS
MT STERLING*   CLOUDY    59  54  82 E6        30.07R
FLEMING/MASON* CLOUDY    57  50  78 NE12      30.06F
DANVILLE*      CLOUDY    61  50  67 SE3       30.05R
RICHMOND*      CLOUDY    61  50  67 E6        30.03S
LEXINGTON      CLOUDY    61  51  70 E9        30.03F
FRANKFORT      CLOUDY    62  49  62 E9        30.01F
LOUISVILLE     CLOUDY    65  48  54 E8        30.00F
LEBANON*         N/A     61  54  77 SE6       30.04R
BOWLING GREEN  MOCLDY    65  57  75 E7        29.95F
$$

KYZ091>093-OHZ055-061-077-WVZ005-015-034-035-042-300600
...SOUTHERN OHIO/WEST VIRGINIA...

CITY           SKY/WX    TMP DP  RH WIND       PRES   REMARKS
COLUMBUS       CLOUDY    48  41  76 N7        30.11F
DAYTON         CLOUDY    49  44  83 E12       30.12S
WILMINGTON     CLOUDY    50  46  86 E6        30.11S
HUNTINGTON       N/A     59  50  72 NE6       30.09S
CHARLESTON       N/A     58  49  72 CALM      30.09S
PINEVILLE*       N/A     56  51  83 MISG      30.13S
BECKLEY          N/A     56  50  80 N6        30.11R
$$

VAZ002-007-008-TNZ017-027-036-066-071-300600
...SOUTHWEST VIRGINIA/EAST TENNESSEE...

CITY           SKY/WX    TMP DP  RH WIND       PRES   REMARKS
WISE*            N/A     59  43  55 CALM      30.11F
BRISTOL        CLOUDY    61  55  81 CALM      30.04S
MORRISTOWN*    MOCLDY    63  55  77 CALM      30.00F
KNOXVILLE      CLOUDY    68  58  70 NE6       29.98F
OAK RIDGE      CLOUDY    66  59  78 CALM      30.01R
CROSSVILLE     CLOUDY    64  56  75 NE3       30.02F
NASHVILLE      CLOUDY    65  59  81 CALM      29.94F
$$

...KEY TO REMARKS...
VSB - VISIBILITY IN MILES
WCI - WIND CHILL INDEX
HX  - HEAT INDEX

$$




USA.gov is the U.S. government's official web portal to all federal, state and local government web resources and services.